Tracking 32932 objects as of 14-Jan-2026
HD Live streaming from Space Station
objects crossing your sky now

FENGYUN 1C DEB

Track FENGYUN 1C DEB now!
10-day predictions


NORAD ID: 37415
Int'l Code: 1999-025EGH
Perigee: 859.3 km
Apogee: 1,284.0 km
Inclination: 99.0 °
Period: 106.5 minutes
Semi major axis: 7442 km
RCS: 0.0105 m2 (small)
Launch date: May 10, 1999
Source: People's Republic of China (PRC)
Launch site: Taiyaun Space Center, China (TSC)

Note: This is SATELLITE DEBRIS
Your satellite tracking list
Your tracking list is empty




NASA's NSSDC Master Catalog

Two Line Element Set (TLE):
1 37415U 99025EGH 26006.56447191  .00000323  00000-0  42286-3 0  9999
2 37415  98.9811 117.0847 0285292 119.1029 243.8993 13.52109969626576
Source of the keplerian elements: AFSPC